Dewpoint
54 41 31 27 20 15 7 4 -3 14 18 19 36 37 33 35 37 48 57 55 54 54 59 68 72 73 73 73 73 73 73 73 73 73 73 73 73 74 73 73 73 72 72 71 71 71 71 72 72
38 28 27 23 16 5 2 -1 -0 9 23 24 23 42 39 37 48 56 56 56 55 54 60 64 72 72 73 73 73 73 73 73 73 73 73 73 73 73 73 73 72 72 72 70 70 70 71 71 72
41 28 24 18 11 1 -1 -2 3 17 21 27 23 35 40 41 51 56 59 55 56 54 56 65 71 72 72 73 73 73 73 73 73 73 73 73 73 73 72 72 72 72 71 70 70 70 71 71 71
30 24 22 18 12 5 1 9 18 18 20 31 30 39 43 54 53 55 57 56 57 54 54 69 70 71 72 72 73 72 72 72 72 72 73 73 73 73 72 72 72 72 72 71 70 70 70 70 70
27 21 16 10 5 3 4 13 22 19 20 24 30 36 44 55 57 59 57 57 57 55 56 65 69 70 71 72 72 72 72 71 72 72 72 73 73 73 72 71 72 72 72 71 71 70 70 70 70
23 20 12 7 7 3 7 12 22 20 21 22 27 31 51 59 57 57 57 58 58 56 61 61 69 70 71 71 71 71 70 71 71 72 72 72 72 72 71 71 71 71 71 71 71 70 69 69 68
23 19 12 8 3 3 7 14 16 20 20 22 28 32 53 56 58 57 57 59 59 60 63 62 64 67 70 70 69 69 70 70 70 71 71 71 71 70 71 71 71 71 71 70 70 69 68 68 68
22 19 16 10 3 0 3 9 13 17 18 27 36 34 47 58 58 57 58 59 61 65 65 64 64 63 64 67 69 69 69 69 70 70 70 70 69 70 70 70 70 70 70 70 69 68 68 68 67
23 18 14 13 10 5 6 13 12 15 18 24 35 46 53 61 58 58 59 60 62 63 66 67 64 63 63 62 66 69 69 69 69 69 69 68 63 65 67 66 69 69 68 68 68 67 66 66 65
23 19 15 13 10 8 7 12 9 15 18 20 34 44 55 59 59 58 57 59 61 64 64 67 67 65 65 60 64 63 63 64 64 64 67 62 62 61 61 63 68 67 67 66 66 65 64 63 55
23 19 13 10 9 12 12 10 12 15 13 19 27 31 46 58 59 59 57 58 59 62 63 64 69 69 67 63 64 61 61 61 62 64 64 63 60 62 59 62 64 63 65 60 61 61 57 56 54
21 21 19 15 12 18 20 17 12 14 15 16 23 29 28 44 57 57 57 56 57 60 62 65 66 70 70 63 63 61 61 63 62 63 68 64 62 64 62 60 59 60 59 58 58 56 57 57 56
18 20 20 17 16 18 21 18 16 16 16 17 19 24 26 28 44 55 55 52 56 58 61 64 66 68 69 71 65 64 64 63 64 65 67 63 62 66 62 61 59 59 58 58 59 57 57 58 59
13 17 19 20 19 20 20 19 17 17 17 16 16 19 23 27 31 47 54 52 53 56 58 64 64 69 68 68 70 69 67 65 65 65 66 70 66 67 62 62 61 60 60 59 60 59 59 60 60
9 12 16 18 20 20 21 19 19 18 18 16 16 17 21 23 27 40 54 55 53 53 56 64 67 69 70 69 68 68 65 64 65 65 71 70 69 68 66 62 62 61 62 64 63 62 62 61 62
10 11 14 15 17 18 19 17 10 13 16 15 15 14 16 21 26 36 49 57 54 52 54 61 62 66 70 70 68 66 65 66 64 65 66 70 70 69 68 63 63 63 64 63 62 62 62 63 62
17 9 12 12 13 16 19 17 11 6 11 13 14 14 13 20 25 30 43 56 57 53 53 59 65 65 69 69 67 68 69 66 64 65 65 70 70 70 68 64 64 68 63 64 63 63 64 64 65
19 15 12 10 9 8 12 17 16 10 7 14 14 15 12 13 19 27 35 52 57 55 55 57 64 66 68 67 68 65 64 66 65 64 65 69 69 70 69 66 67 66 63 63 63 65 64 63 64
29 23 16 14 8 9 10 9 10 11 9 14 13 12 13 13 16 24 33 49 58 59 57 57 62 66 65 64 64 63 64 64 65 65 67 68 68 69 70 67 67 67 65 65 67 65 66 64 67
28 27 24 18 15 12 14 16 14 9 10 12 15 15 15 17 16 21 29 36 57 60 59 59 62 66 65 64 64 63 63 64 65 66 68 68 68 70 69 69 67 67 65 68 67 67 64 66 66
28 25 24 20 19 18 18 21 21 16 15 14 16 20 17 16 19 21 24 36 41 50 61 60 60 64 67 67 65 64 64 65 65 66 67 68 68 69 70 70 68 68 68 66 68 68 66 64 66
25 25 24 24 23 20 22 19 20 19 18 19 21 24 25 22 19 21 24 28 37 44 48 49 55 61 65 69 67 67 63 63 64 66 66 67 69 69 69 69 69 69 67 67 67 67 67 67 64
25 25 24 25 27 26 23 23 21 20 18 18 21 23 23 24 24 24 25 27 28 38 43 49 47 46 51 61 69 67 66 64 64 66 68 69 69 69 68 69 69 69 68 68 68 68 68 67 66
25 25 26 26 24 22 23 23 22 21 23 24 24 23 24 25 25 25 27 29 28 30 38 47 48 45 48 53 63 68 67 66 63 64 66 67 68 69 69 68 69 69 69 68 68 69 69 68 67
29 28 30 29 31 23 20 19 21 21 21 23 23 25 27 28 28 27 28 27 29 31 38 44 41 42 48 54 54 64 67 68 67 66 66 67 67 68 68 69 69 68 69 68 69 69 68 68 67
26 31 29 21 16 17 17 14 15 18 19 19 18 22 25 27 30 28 30 32 32 35 39 39 39 41 45 50 55 56 64 65 66 66 65 67 67 68 69 69 69 69 68 69 69 68 68 69 68
18 27 30 26 21 17 11 14 15 13 16 18 20 22 27 30 30 32 34 38 41 41 40 44 44 43 45 49 57 60 61 65 65 66 66 66 68 66 69 69 69 69 69 69 69 68 69 68 66
33 30 28 33 27 22 17 11 12 16 14 19 28 30 31 32 34 36 37 37 40 42 45 48 48 44 43 50 56 59 62 64 66 67 67 67 68 68 68 67 68 68 68 68 68 67 65 63 61
34 33 35 36 30 23 19 17 20 29 28 28 28 27 29 32 33 35 34 34 36 40 43 46 50 51 50 49 49 57 61 64 66 67 68 68 69 69 67 67 66 67 68 68 66 64 61 60 57
28 33 32 29 28 36 34 27 30 31 30 29 27 25 25 26 27 28 31 32 34 35 38 45 49 51 54 56 56 56 57 61 64 66 68 69 68 69 67 67 66 66 66 65 64 62 58 55 52
Lifted_Index
8 8 8 7 5 3 2 0 0 1 3 3 2 0 -1 -1 -2 -3 -3 -1 1 1 1 -0 -2 -3 -3 -3 -3 -3 -3 -3 -3 -4 -4 -4 -4 -4 -4 -4 -4 -3 -3 -3 -3 -3 -3 -4 -4
8 8 8 7 5 3 1 0 0 1 3 4 3 1 -1 -2 -3 -3 -3 -1 1 2 1 -0 -2 -3 -3 -3 -3 -3 -3 -3 -3 -4 -4 -4 -4 -4 -4 -4 -3 -3 -3 -3 -3 -3 -3 -3 -3
8 8 8 6 4 2 0 -0 0 2 3 4 3 1 -1 -2 -3 -3 -2 -1 1 2 2 0 -1 -2 -3 -3 -3 -3 -3 -3 -3 -3 -4 -4 -4 -4 -4 -3 -3 -3 -3 -3 -2 -3 -3 -3 -3
8 8 7 6 4 2 1 0 2 3 4 3 2 0 -1 -3 -3 -3 -2 -1 1 2 2 0 -1 -2 -3 -3 -3 -3 -3 -3 -3 -3 -4 -4 -4 -4 -4 -3 -3 -3 -3 -3 -2 -2 -2 -2 -2
8 7 6 5 4 2 1 2 4 4 4 4 2 0 -2 -4 -4 -3 -2 -1 0 1 1 0 -1 -2 -2 -3 -2 -2 -2 -2 -2 -3 -3 -4 -4 -4 -3 -3 -3 -3 -3 -3 -2 -2 -1 -1 -1
7 7 6 4 3 2 2 3 4 4 4 4 3 0 -3 -4 -4 -3 -2 -1 -0 0 0 1 0 -1 -2 -2 -2 -2 -1 -2 -2 -3 -3 -3 -3 -3 -3 -3 -3 -3 -3 -2 -2 -1 -1 -1 -1
7 7 6 4 3 2 2 4 5 4 4 4 3 1 -3 -4 -3 -2 -2 -1 -1 -1 -0 0 1 -0 -1 -1 -1 -1 -1 -1 -2 -2 -2 -3 -2 -2 -2 -2 -3 -3 -2 -2 -1 -0 0 0 0
7 7 6 5 3 2 3 4 5 5 4 4 3 0 -2 -4 -3 -2 -2 -2 -1 -1 -1 -0 1 1 0 -0 -0 -0 -0 -1 -1 -1 -2 -1 -1 -1 -1 -1 -2 -2 -2 -1 -0 0 1 1 1
7 7 6 5 4 3 3 5 5 5 5 4 3 0 -2 -4 -4 -3 -2 -2 -2 -2 -2 -1 -0 0 0 0 0 0 0 0 -0 -0 -0 -0 1 1 0 0 -0 -1 -0 -0 0 1 1 2 3
7 7 7 6 4 4 4 5 5 6 6 5 3 1 -2 -4 -4 -4 -3 -3 -3 -3 -2 -2 -2 -1 -1 -0 0 1 1 1 1 1 1 1 2 2 1 1 1 1 1 1 2 2 3 3 4
6 7 7 6 5 5 5 6 6 6 5 5 4 3 1 -2 -4 -4 -4 -3 -3 -3 -3 -3 -3 -3 -2 -2 -1 0 1 1 1 1 1 1 1 1 1 1 1 2 2 3 3 3 4 4 4
7 7 7 6 6 6 6 6 6 6 6 5 5 5 4 1 -2 -4 -4 -3 -3 -3 -3 -3 -4 -4 -4 -3 -2 -1 -1 -0 -0 -0 -0 0 1 1 1 1 1 2 3 3 3 3 4 3 3
7 7 6 6 7 7 7 7 7 7 7 6 7 7 6 4 0 -2 -3 -3 -3 -3 -3 -3 -4 -5 -5 -4 -3 -2 -2 -2 -1 -2 -1 -1 -1 -1 -0 0 1 1 2 2 2 2 2 2 2
8 7 7 6 7 7 7 7 7 7 7 7 7 7 6 5 3 -0 -3 -3 -3 -3 -3 -3 -4 -5 -5 -5 -4 -4 -3 -2 -2 -3 -3 -3 -2 -2 -1 -1 -0 0 0 1 1 1 1 1 1
8 7 7 7 7 7 6 5 6 7 7 7 7 7 6 6 4 1 -2 -3 -3 -3 -3 -3 -4 -5 -6 -5 -5 -4 -4 -3 -3 -3 -4 -4 -4 -3 -2 -1 -1 -1 -1 -1 -0 -0 -0 -0 -1
7 7 7 7 7 7 6 4 5 6 7 7 7 6 6 6 4 2 -1 -4 -4 -3 -3 -3 -4 -5 -6 -6 -5 -5 -4 -4 -4 -4 -4 -4 -4 -4 -3 -2 -2 -2 -2 -1 -1 -1 -1 -2 -2
6 6 6 6 7 7 6 5 5 5 6 6 6 6 6 5 5 3 0 -3 -5 -4 -3 -3 -4 -5 -5 -6 -6 -5 -5 -4 -4 -4 -4 -4 -5 -4 -4 -3 -3 -2 -2 -2 -2 -2 -2 -2 -2
4 4 5 5 5 5 6 6 6 5 6 6 6 6 5 5 5 4 2 -2 -5 -5 -4 -4 -4 -5 -5 -5 -5 -5 -5 -5 -4 -4 -4 -4 -5 -5 -4 -4 -3 -3 -3 -2 -2 -2 -2 -3 -3
3 3 3 3 3 4 5 6 6 6 6 6 6 6 5 5 5 5 3 -0 -4 -5 -4 -4 -4 -5 -5 -5 -5 -5 -5 -5 -5 -5 -4 -4 -4 -4 -4 -4 -4 -3 -3 -3 -3 -3 -3 -3 -3
2 2 2 2 1 2 4 6 6 6 6 6 6 6 5 5 5 5 4 2 -2 -4 -5 -5 -5 -5 -5 -5 -5 -5 -5 -5 -5 -5 -5 -5 -4 -4 -4 -4 -4 -4 -3 -3 -3 -4 -4 -4 -4
2 2 1 1 1 2 3 5 5 6 6 6 6 6 6 5 5 5 5 4 1 -1 -3 -4 -5 -6 -6 -6 -6 -5 -5 -5 -6 -6 -6 -5 -5 -5 -5 -4 -4 -4 -4 -4 -4 -4 -4 -4 -4
2 2 1 1 1 1 2 3 4 4 5 5 6 6 6 6 6 5 5 5 3 2 0 -1 -2 -4 -5 -6 -6 -6 -6 -6 -6 -7 -6 -6 -6 -5 -5 -5 -5 -4 -4 -4 -4 -4 -4 -4 -4
2 1 1 0 -0 1 1 2 3 3 3 4 4 5 5 5 5 5 5 5 5 4 3 2 1 0 -1 -4 -6 -6 -6 -6 -6 -7 -7 -7 -6 -6 -6 -5 -5 -5 -5 -5 -5 -5 -5 -5 -5
2 1 -0 -1 -1 0 2 3 3 3 2 3 3 3 4 4 5 6 6 6 5 5 4 3 3 2 1 -1 -3 -5 -6 -6 -6 -6 -7 -7 -7 -7 -6 -6 -6 -6 -6 -6 -6 -5 -5 -5 -6
1 0 -1 -1 -1 1 2 3 3 3 2 2 2 3 3 4 5 6 6 6 6 5 4 4 3 3 2 1 -1 -3 -5 -6 -6 -6 -6 -7 -7 -7 -7 -6 -6 -6 -6 -6 -6 -6 -6 -6 -6
0 0 -0 -1 -0 1 1 2 3 3 2 3 3 4 4 5 5 6 6 5 5 5 4 4 4 3 2 1 -0 -2 -4 -5 -6 -6 -6 -6 -7 -7 -7 -7 -7 -7 -7 -7 -7 -7 -7 -7 -7
-0 -0 -0 -0 -0 0 0 1 2 3 2 2 3 4 5 5 5 5 5 5 5 5 4 4 3 3 2 1 -1 -2 -3 -5 -6 -6 -6 -6 -7 -7 -7 -7 -7 -7 -8 -8 -8 -7 -7 -7 -7
-1 -1 -1 -0 -0 -0 0 1 1 1 1 1 2 4 5 5 5 5 5 6 5 5 4 4 3 2 2 1 -1 -2 -4 -5 -6 -6 -6 -7 -7 -7 -7 -6 -7 -7 -8 -8 -7 -7 -6 -6 -6
0 -0 -0 0 0 -0 0 1 1 1 0 1 2 4 6 6 6 6 6 6 6 5 5 4 3 2 1 1 -0 -1 -3 -4 -5 -6 -7 -7 -7 -7 -7 -6 -7 -7 -7 -7 -7 -7 -6 -6 -6
1 1 0 0 0 -0 0 1 1 1 0 1 2 5 6 7 6 6 7 7 6 5 5 4 3 1 1 0 -0 -1 -2 -3 -5 -6 -7 -7 -7 -7 -7 -6 -7 -7 -7 -7 -7 -6 -6 -6 -6